Powrót do katalogu

STARLINK-34867

AktywnyŁącznośćVLEO
NORAD 65459·PAYLOAD·🇺🇸 United States

Wystrzelony Sep 3, 2025 z Cape Canaveral Space Force Station

Loading…

Następne Przeloty (najbliższe 24 godziny)

TLE

ŚwieżeSource: CelesTrak SupGP

Epoka: Sep 14, 2026, 22:45 UTC

1 65459C 25195B   26257.94840278  .00006787  00000+0  20056-3 0  2575
2 65459  53.1578  95.5207 0001118  88.0470 158.0383 15.34379167    11

Śledź STARLINK-34867 w czasie rzeczywistym z AllMySat

Download on the App Store